User: anonymous   Login
Location: Caltech
(34.1382°N, 118.1253°W)
Time: 14:58:35
(UTC-07:00)
Language:

OAO 1 Rocket - Orbit

View from above orbital plane
View from above orbital plane
View from above satellite
View from above satellite

Ground track
Ground track

The orbit data is extracted from the following two-line orbital elements,

1  2144U 66031B   17081.93495831 +.00000087 +00000-0 +31521-4 0  9997
2  2144 035.0432 318.9443 0008741 190.5114 169.5394 14.42608406675227
Epoch (UTC): 22 March 2017 22:26:20
Eccentricity: 0.0008741
inclination: 35.0432°
perigee height: 743 km
apogee height: 756 km
right ascension of ascending node: 318.9443°
argument of perigee: 190.5114°
revolutions per day: 14.42608406
mean anomaly at epoch: 169.5394°
orbit number at epoch: 67522

The dashed part of the orbit path shows where the satellite is in the earth's shadow,  

DLR